[[{"header":{"parameterUnit":"m.s-1","parameterCategory":1,"la1":30.2991,"la2":30.254,"lo1":-89.0895,"lo2":-89.0444,"dy":0.0017,"dx":0.0017,"nx":28,"ny":28,"refTime":"2025-07-17T21:00:00:Z","depth":0,"parameterNumber":2,"parameterNumberName":"U-component_of_WINDS"},"data":[0,0,0,0,0,0,0,0,0,0,0,0,0,0,0,0,0,0,0,0,0,0,0,0,0,0,0,0,0,0,0,0,0,0,0,0,0,0,0,0,0,0,0,0,0,0,0,0,0,0,0,0,0,0,0,0,0,0,-1.0727,-1.0727,0,-1.0768,-1.0768,-1.0769,-1.0797,-1.0797,-1.0797,-1.0798,-1.084,-1.0841,-1.0842,0,0,0,0,0,0,0,0,0,0,0,0,0,-1.0674,-1.0675,-1.0727,-1.0727,-1.0728,-1.0768,-1.0768,-1.0769,-1.0797,-1.0797,-1.0797,-1.0798,-1.084,-1.0841,-1.0842,0,0,0,0,0,0,0,0,0,0,0,0,0,-1.0704,-1.0676,-1.0727,-1.0747,-1.0749,-1.0768,-1.0768,-1.0769,-1.0797,-1.0797,-1.0797,-1.0798,-1.0839,-1.0841,-1.0842,-1.0844,0,0,-1.0846,-1.0847,0,0,0,0,0,0,0,0,-1.0703,-1.0706,-1.0743,-1.0745,-1.0748,-1.0778,-1.0765,-1.0794,-1.0797,-1.0779,-1.0798,-1.0798,-1.0819,-1.0822,-1.0829,-1.0846,-1.0848,-1.0847,-1.0847,-1.0848,-1.0848,0,0,0,0,0,0,0,-1.0701,-1.0705,-1.0743,-1.0744,-1.0746,-1.0754,-1.0759,-1.0771,-1.0797,-1.078,-1.0782,-1.0787,-1.082,-1.0828,-1.083,-1.0849,-1.0846,-1.0848,-1.0849,-1.0849,-1.0871,-1.0871,0,0,0,0,0,0,-1.0695,-1.0703,-1.0742,-1.0744,-1.0726,-1.0755,-1.076,-1.0768,-1.0796,-1.0801,-1.0786,-1.0788,-1.0825,-1.0829,-1.0832,-1.0837,-1.0848,-1.0849,-1.085,-1.0871,-1.0871,-1.0871,0,0,0,0,0,0,-1.0694,-1.0698,-1.074,-1.0724,-1.073,-1.0755,-1.0764,-1.0768,-1.0776,-1.0801,-1.0806,-1.0789,-1.0826,-1.083,-1.0841,-1.0839,-1.085,-1.0851,-1.0872,-1.0871,-1.0871,-1.0846,0,0,0,0,0,0,-1.0692,-1.0698,-1.0698,-1.0724,-1.0731,-1.0748,-1.0764,-1.0769,-1.0778,-1.078,-1.0805,-1.0809,-1.0826,-1.0839,-1.0843,-1.0841,-1.0852,-1.0872,-1.0871,-1.0871,-1.0847,-1.0845,-1.0843,0,0,0,0,0,-1.069,-1.069,-1.0698,-1.0703,-1.0732,-1.0748,-1.0752,-1.0771,-1.0778,-1.0779,-1.0795,-1.0809,-1.0839,-1.084,-1.0844,-1.0843,-1.0872,-1.0872,-1.0871,-1.0848,-1.0845,-1.0843,0,0,0,0,0,0,-1.0663,-1.0694,-1.0703,-1.0711,-1.0727,-1.0753,-1.0755,-1.0767,-1.0781,-1.0783,-1.0806,-1.0812,-1.0821,-1.0833,-1.0834,-1.0847,-1.0857,-1.0857,-1.0838,-1.0836,-1.0834,-1.083,-1.0853,0,0,0,0,0,-1.0658,-1.0668,-1.0694,-1.0699,-1.0706,-1.0729,-1.0737,-1.075,-1.0767,-1.0774,-1.0791,-1.0808,-1.0821,-1.0829,-1.0843,-1.085,-1.0856,-1.0851,-1.0849,-1.0847,-1.0846,-1.0851,-1.085,-1.0869,-1.0869,-1.0869,0,0,-1.0648,-1.0666,-1.0671,-1.0694,-1.0707,-1.0718,-1.0734,-1.0744,-1.0752,-1.0776,-1.0787,-1.0801,-1.0821,-1.083,-1.0835,-1.0841,-1.0843,-1.0846,-1.0844,-1.0845,-1.0851,-1.0849,-1.0847,-1.0868,-1.0868,-1.0869,0,0,-1.0634,-1.0649,-1.0654,-1.0667,-1.0688,-1.0704,-1.0705,-1.0729,-1.0739,-1.0751,-1.0769,-1.0779,-1.0801,-1.0815,-1.0825,-1.0818,-1.083,-1.0822,-1.081,-1.0814,-1.0813,-1.0812,-1.0809,-1.0808,-1.0821,-1.0821,-1.0821,0,-1.0619,-1.0634,-1.0655,-1.0664,-1.0674,-1.0696,-1.0702,-1.0714,-1.0738,-1.0745,-1.0751,-1.078,-1.0795,-1.0807,-1.0806,-1.0813,-1.0816,-1.0818,-1.0811,-1.081,-1.081,-1.0807,-1.0806,-1.082,-1.082,-1.082,-1.0821,0,-1.0614,-1.0625,-1.0627,-1.0649,-1.066,-1.0667,-1.0689,-1.0697,-1.071,-1.0725,-1.0738,-1.0757,-1.0775,-1.0779,-1.0792,-1.0794,-1.0797,-1.0807,-1.0817,-1.0806,-1.0804,-1.0804,-1.0818,-1.0819,-1.0819,-1.0819,0,0,-1.0583,-1.0618,-1.0618,-1.0629,-1.0654,-1.0663,-1.0672,-1.0689,-1.0696,-1.0712,-1.072,-1.0739,-1.0749,-1.076,-1.0775,-1.0779,-1.0772,-1.0789,-1.079,-1.0785,-1.0776,-1.0768,-1.0766,-1.0781,-1.0781,-1.0781,-1.0774,0,-1.0573,-1.0589,-1.0608,-1.0618,-1.0629,-1.0651,-1.0659,-1.0675,-1.069,-1.0701,-1.0718,-1.073,-1.0742,-1.0749,-1.0754,-1.0772,-1.077,-1.0773,-1.0789,-1.0789,-1.0782,-1.0765,-1.0756,-1.0749,-1.0774,-1.0773,-1.0773,0,-1.0562,-1.0577,-1.0588,-1.0613,-1.0618,-1.0625,-1.0643,-1.0653,-1.0673,-1.0683,-1.0696,-1.0712,-1.0724,-1.0733,-1.0749,-1.075,-1.0758,-1.0768,-1.0768,-1.077,-1.078,-1.0766,-1.0747,-1.0745,-1.0773,-1.0773,-1.0773,0,-1.0538,-1.0561,-1.0571,-1.058,-1.0609,-1.0613,-1.0625,-1.0645,-1.0655,-1.0671,-1.0678,-1.0695,-1.0704,-1.0718,-1.0738,-1.0743,-1.0752,-1.0763,-1.0761,-1.076,-1.0761,-1.076,-1.0742,-1.0767,-1.0767,-1.0767,-1.0767,0,-1.0524,-1.053,-1.0561,-1.0566,-1.0574,-1.0597,-1.0603,-1.0618,-1.0636,-1.0645,-1.0666,-1.0674,-1.0701,-1.0713,-1.0729,-1.074,-1.0744,-1.0753,-1.0757,-1.0751,-1.075,-1.0756,-1.0757,-1.0767,-1.0767,-1.0767,-1.0767,0,-1.0498,-1.0519,-1.053,-1.0557,-1.0564,-1.0568,-1.0592,-1.0599,-1.0615,-1.0627,-1.0631,-1.0657,-1.0672,-1.0694,-1.0716,-1.0727,-1.0735,-1.0742,-1.0728,-1.073,-1.0727,-1.0726,-1.0711,-1.071,-1.0736,-1.0736,-1.0736,0,-1.0487,-1.0491,-1.0519,-1.0527,-1.0539,-1.0551,-1.0561,-1.0584,-1.0594,-1.0617,-1.0621,-1.0638,-1.0653,-1.0676,-1.0697,-1.0714,-1.0721,-1.0715,-1.0724,-1.0718,-1.0721,-1.072,-1.0721,-1.0712,-1.0712,-1.0712,-1.0711,0,-1.0465,-1.0475,-1.0489,-1.0506,-1.0517,-1.0532,-1.0548,-1.0553,-1.058,-1.059,-1.0606,-1.0617,-1.064,-1.0657,-1.0677,-1.069,-1.0705,-1.0709,-1.0709,-1.0702,-1.0693,-1.0698,-1.0721,-1.0709,-1.0709,-1.0709,-1.0709,-1.0709,-1.0446,-1.0451,-1.0471,-1.0486,-1.0501,-1.0515,-1.0523,-1.054,-1.0554,-1.0574,-1.0587,-1.0603,-1.0623,-1.0652,-1.0665,-1.0678,-1.0684,-1.0684,-1.0684,-1.0684,-1.0681,-1.0692,-1.0681,-1.0682,-1.0682,-1.0682,-1.0682,0,-1.0424,-1.0439,-1.0452,-1.0474,-1.0485,-1.0499,-1.0518,-1.0526,-1.0539,-1.0557,-1.0571,-1.059,-1.0607,-1.0629,-1.0648,-1.0653,-1.0661,-1.0657,-1.0657,-1.066,-1.0675,-1.0673,-1.0651,-1.0651,-1.0651,-1.0651,-1.0651,-1.0651,-1.0415,-1.0425,-1.0438,-1.0456,-1.0471,-1.0485,-1.0495,-1.0508,-1.0523,-1.0543,-1.0556,-1.0571,-1.0591,-1.0612,-1.0628,-1.0634,-1.0639,-1.0634,-1.0642,-1.0656,-1.0658,-1.0661,-1.0659,-1.0635,-1.0635,-1.0626,-1.0626,-1.0626]},{"header":{"parameterUnit":"m.s-1","parameterCategory":1,"la1":30.2991,"la2":30.254,"lo1":-89.0895,"lo2":-89.0444,"dy":0.0017,"dx":0.0017,"nx":28,"ny":28,"refTime":"2025-07-17T21:00:00:Z","depth":0,"parameterNumber":3,"parameterNumberName":"V-component_of_WINDS"},"data":[0,0,0,0,0,0,0,0,0,0,0,0,0,0,0,0,0,0,0,0,0,0,0,0,0,0,0,0,0,0,0,0,0,0,0,0,0,0,0,0,0,0,0,0,0,0,0,0,0,0,0,0,0,0,0,0,0,0,6.494,6.4942,0,6.5188,6.5191,6.5194,6.5185,6.5182,6.5179,6.5175,6.5422,6.5432,6.5442,0,0,0,0,0,0,0,0,0,0,0,0,0,6.4446,6.4456,6.4939,6.4943,6.4946,6.5188,6.5191,6.5195,6.5186,6.5182,6.5178,6.5174,6.5419,6.5431,6.5443,0,0,0,0,0,0,0,0,0,0,0,0,0,6.4674,6.4459,6.4939,6.4971,6.4976,6.5187,6.5192,6.5196,6.5187,6.5182,6.5177,6.5172,6.5415,6.543,6.5444,6.5638,0,0,6.5489,6.5495,0,0,0,0,0,0,0,0,6.4661,6.4692,6.4963,6.4969,6.4975,6.5151,6.5108,6.5344,6.5188,6.5107,6.5175,6.5169,6.5336,6.5357,6.5414,6.5649,6.566,6.549,6.5499,6.5505,6.551,0,0,0,0,0,0,0,6.4646,6.4681,6.5038,6.4967,6.4974,6.4969,6.4996,6.5153,6.5247,6.5113,6.5113,6.5143,6.5338,6.54,6.542,6.5663,6.549,6.5503,6.5512,6.5518,6.6065,6.607,0,0,0,0,0,0,6.4624,6.4668,6.503,6.5045,6.4803,6.4982,6.5012,6.5099,6.5245,6.5262,6.5147,6.5142,6.5378,6.5403,6.5429,6.5662,6.5505,6.5519,6.5528,6.6059,6.6066,6.6072,0,0,0,0,0,0,6.4614,6.4657,6.502,6.4857,6.4903,6.4996,6.5094,6.5107,6.5169,6.5271,6.5287,6.5195,6.5375,6.5408,6.5585,6.5671,6.5526,6.5539,6.6052,6.6061,6.6069,6.6132,0,0,0,0,0,0,6.46,6.4653,6.473,6.4859,6.4912,6.5176,6.51,6.5116,6.5196,6.5191,6.5319,6.5335,6.5373,6.5564,6.56,6.5688,6.555,6.6045,6.6056,6.6067,6.6123,6.6142,6.6158,0,0,0,0,0,6.4582,6.4737,6.4734,6.4778,6.5011,6.5181,6.521,6.5253,6.5203,6.5279,6.5344,6.5331,6.5656,6.5582,6.5623,6.5717,6.604,6.6053,6.6066,6.6115,6.6138,6.6158,0,0,0,0,0,0,6.4614,6.4755,6.4753,6.4955,6.5056,6.5179,6.5277,6.5277,6.5392,6.5383,6.5428,6.5457,6.5633,6.5693,6.5608,6.5909,6.5841,6.5863,6.5864,6.5887,6.5905,6.5886,6.5563,0,0,0,0,0,6.4645,6.4774,6.4889,6.5056,6.5107,6.5183,6.5259,6.5283,6.5388,6.543,6.5508,6.5608,6.5732,6.5813,6.5933,6.6132,6.6157,6.6216,6.6233,6.6248,6.6265,6.6371,6.6397,6.6115,6.6115,6.6114,0,0,6.4709,6.4802,6.4881,6.5064,6.5146,6.5275,6.5219,6.5359,6.5454,6.5451,6.5623,6.5683,6.5798,6.5985,6.6072,6.604,6.6349,6.6264,6.6274,6.6285,6.6386,6.6413,6.6437,6.6124,6.6122,6.6121,0,0,6.4892,6.4977,6.5124,6.5206,6.5331,6.538,6.5415,6.5538,6.5578,6.5752,6.5751,6.5863,6.6077,6.6158,6.6227,6.6438,6.6429,6.6475,6.6567,6.6669,6.6691,6.6711,6.6783,6.6809,6.6493,6.6493,6.6493,0,6.4956,6.5154,6.5199,6.534,6.5418,6.5423,6.5569,6.5646,6.5802,6.5855,6.5818,6.6084,6.6162,6.6367,6.6418,6.6475,6.6513,6.646,6.6685,6.6705,6.6724,6.6794,6.6821,6.6498,6.6497,6.6497,6.6496,0,6.5224,6.5361,6.5464,6.5616,6.5707,6.585,6.5913,6.5998,6.6014,6.6065,6.624,6.6333,6.6471,6.6521,6.6537,6.6728,6.6704,6.6676,6.6607,6.6755,6.6821,6.6848,6.6504,6.6503,6.6501,6.65,0,0,6.5436,6.5609,6.5646,6.5714,6.585,6.5955,6.6095,6.6232,6.6303,6.641,6.6526,6.6706,6.668,6.6758,6.6783,6.6873,6.703,6.6833,6.6836,6.6864,6.7241,6.726,6.7291,6.7025,6.7031,6.7035,6.723,0,6.5631,6.5885,6.5927,6.6148,6.6272,6.6276,6.6398,6.6493,6.6545,6.6655,6.671,6.6836,6.6794,6.6841,6.693,6.6992,6.7105,6.6978,6.7131,6.7136,6.7101,6.7325,6.7347,6.7527,6.7257,6.7261,6.7264,0,6.5893,6.6008,6.6241,6.6357,6.6411,6.6521,6.6647,6.6754,6.686,6.689,6.6977,6.699,6.7132,6.7059,6.7253,6.7166,6.723,6.727,6.7278,6.7292,6.7208,6.7343,6.7586,6.7612,6.7306,6.7302,6.73,0,6.602,6.6233,6.6399,6.6457,6.6598,6.6674,6.6735,6.6836,6.6914,6.7024,6.7074,6.7198,6.7266,6.736,6.7404,6.7347,6.7595,6.7526,6.7621,6.762,6.7672,6.7668,6.7926,6.7717,6.7717,6.7716,6.7716,0,6.6233,6.6375,6.6458,6.656,6.6717,6.6763,6.6917,6.6976,6.7065,6.7176,6.7186,6.7289,6.7343,6.7453,6.7489,6.7643,6.7674,6.77,6.7707,6.7698,6.7695,6.774,6.7728,6.7724,6.7722,6.7721,6.7719,0,6.6402,6.6464,6.6645,6.6763,6.6795,6.6906,6.7005,6.7102,6.7152,6.7292,6.7327,6.7405,6.7535,6.7589,6.7749,6.7772,6.7948,6.7947,6.7913,6.7915,6.8006,6.7996,6.8302,6.8343,6.8108,6.811,6.8112,0,6.6533,6.6642,6.6772,6.6848,6.6912,6.7034,6.7114,6.7162,6.7244,6.737,6.7451,6.7582,6.7688,6.7895,6.7964,6.8084,6.8085,6.8184,6.8103,6.8089,6.8083,6.8076,6.8085,6.8198,6.82,6.8202,6.8204,0,6.6758,6.6782,6.6899,6.7025,6.712,6.7221,6.732,6.738,6.7443,6.7534,6.7668,6.775,6.7913,6.804,6.8165,6.8224,6.8223,6.8228,6.8256,6.8247,6.8222,6.8234,6.7951,6.8221,6.8219,6.8218,6.8217,6.8216,6.691,6.7006,6.7112,6.7239,6.7319,6.741,6.7506,6.7569,6.7682,6.7819,6.7839,6.7981,6.808,6.8247,6.8312,6.8421,6.8396,6.8437,6.8447,6.8456,6.8461,6.8206,6.8444,6.8443,6.8443,6.8443,6.8442,0,6.7133,6.7201,6.7318,6.7456,6.7556,6.7548,6.7656,6.7739,6.7864,6.7958,6.8063,6.8214,6.8337,6.8416,6.8539,6.8611,6.8614,6.8642,6.8636,6.8649,6.8478,6.844,6.8637,6.8637,6.8637,6.8637,6.8637,6.8637,6.7261,6.7422,6.7459,6.7657,6.7723,6.7864,6.7926,6.8008,6.8083,6.8252,6.8356,6.8406,6.8493,6.8622,6.8733,6.8753,6.8797,6.8826,6.8844,6.8682,6.8661,6.8642,6.8607,6.8836,6.8836,6.9006,6.9007,6.9008]}]]